Location: Chavannes
(47.1090°N, 0.2226°W)
Time: 13:22:05
(UTC+00:00)

Cosmos 405 Rocket - Pass Details

Date: 16 October 2021
Orbit: 488 x 551 km, 81.3° (Epoch: 03 December)

Event Time Altitude Azimuth Distance (km) Brightness Sun altitude
Rises 18:30:47 0° 351° (N) 2,667 6.5 -14.3°
Reaches altitude 10° 18:32:57 10° 355° (N) 1,784 5.5 -14.6°
Maximum altitude 18:36:51 62° 77° (ENE) 609 2.7 -15.3°
Drops below altitude 10° 18:40:47 10° 159° (SSE) 1,803 5.2 -16.0°
Enters shadow 18:42:10 - 161° (SSE) 2,370 5.8 -16.2°
